Dewpoint
55 46 42 41 31 27 18 26 37 39 44 49 48 49 49 53 50 49 61 61 62 62 63 63 66 64 63 62 61 60 60 59 59 59 59 58 57 58 58 59 59 60 60 61 65 66 66 66 67
44 42 43 35 22 13 14 33 35 41 48 51 51 50 50 52 55 59 60 61 61 61 62 62 64 63 63 62 60 60 59 58 59 58 59 58 57 56 57 57 58 59 60 62 62 64 65 64 63
42 41 35 27 20 14 16 34 39 46 49 49 50 51 49 52 57 59 60 60 60 59 60 61 63 62 62 61 60 59 58 58 58 58 58 58 55 54 54 55 56 58 59 59 60 61 63 63 62
36 36 33 24 18 26 29 32 43 46 48 49 47 48 53 56 56 58 60 59 58 58 59 62 62 61 61 60 59 58 58 57 57 58 58 56 54 53 53 54 54 55 56 57 58 59 60 61 60
35 30 23 22 22 28 31 38 45 44 46 46 46 47 52 57 58 59 58 57 56 57 57 57 62 60 59 58 58 57 57 56 56 54 52 51 52 52 52 53 53 54 52 53 54 55 56 57 57
30 29 20 15 17 25 38 43 45 45 46 48 47 48 53 58 58 58 57 56 56 56 56 55 59 58 58 57 56 56 56 55 54 54 51 49 51 52 51 51 52 51 51 50 50 52 54 55 55
28 26 19 20 19 22 36 45 45 46 45 46 48 47 54 56 57 56 56 56 56 56 57 57 55 55 58 57 56 56 55 53 53 52 52 50 49 52 53 53 52 52 50 49 47 47 50 52 54
29 26 21 19 18 22 42 45 47 46 46 49 48 46 51 56 57 56 54 56 57 58 58 58 57 54 54 55 56 55 55 54 53 53 52 52 51 50 51 51 54 54 53 50 48 46 49 50 53
31 21 17 18 20 26 43 45 50 50 48 49 50 49 51 57 57 54 53 54 55 56 57 59 58 57 56 55 56 56 54 54 54 54 54 55 51 51 49 53 54 55 55 54 51 50 51 50 47
28 22 20 22 20 27 42 43 48 47 47 48 51 52 55 56 55 53 51 51 53 54 55 57 58 58 57 53 57 58 56 55 55 55 55 52 54 52 49 51 52 53 53 54 51 48 50 49 41
27 23 20 23 35 38 42 45 47 45 44 46 50 53 54 54 53 51 49 50 51 53 51 54 59 59 57 57 57 55 54 55 54 56 56 55 54 53 51 49 49 50 51 47 49 48 44 44 46
20 19 24 32 43 43 42 45 43 44 46 49 52 53 53 52 51 49 49 49 49 51 51 54 56 58 58 54 53 55 53 53 52 54 57 55 52 52 53 49 49 50 48 49 48 47 51 51 49
19 20 33 39 44 44 45 42 42 46 49 50 52 52 51 50 50 49 49 48 49 50 54 56 54 54 56 58 55 56 56 53 55 55 56 56 54 54 53 53 52 51 49 49 49 48 48 49 50
29 32 36 42 44 45 42 44 45 49 51 51 51 51 50 49 49 49 49 49 52 53 55 56 52 54 55 56 58 57 56 55 55 55 56 58 56 56 54 53 51 51 51 51 51 49 49 48 48
36 32 37 40 43 43 42 40 40 48 50 50 50 49 49 49 49 49 50 53 54 54 53 53 53 57 57 56 56 55 54 53 53 51 53 53 53 54 56 54 54 53 55 56 56 54 52 50 48
25 30 23 35 40 42 38 20 39 48 48 47 47 47 47 48 48 49 51 53 54 50 52 51 51 56 57 58 56 55 54 52 49 48 49 50 49 50 49 47 48 50 51 52 54 55 54 52 50
23 14 21 22 35 37 36 22 38 46 46 45 46 45 47 48 49 51 52 54 50 48 50 53 54 53 57 58 55 53 52 48 46 46 45 48 46 47 47 45 45 48 45 46 47 47 50 52 52
8 13 15 16 24 33 27 28 37 45 45 44 44 44 46 47 48 52 54 56 53 54 54 53 56 57 57 53 51 48 47 45 44 43 44 45 44 45 45 43 45 45 43 44 44 46 45 46 47
17 13 11 13 17 26 23 25 26 42 44 44 42 43 46 48 52 53 53 54 55 54 51 50 51 52 49 46 44 42 40 42 43 43 44 42 41 41 39 37 38 40 40 43 44 43 44 43 44
22 20 17 17 19 26 24 24 26 34 43 43 42 43 45 50 49 48 48 51 50 46 44 43 43 43 42 41 41 42 42 41 42 41 41 41 40 39 36 39 37 38 36 38 39 40 39 40 42
24 23 22 22 27 28 29 24 29 35 40 43 44 45 48 50 47 46 45 45 46 45 42 41 42 42 43 42 40 41 40 41 40 40 39 39 39 37 38 38 38 38 36 35 38 37 38 35 36
23 24 24 23 24 20 29 19 23 33 39 43 46 48 48 47 46 45 45 44 42 41 43 42 42 41 41 43 41 42 38 38 39 39 38 38 37 37 37 38 39 39 38 38 37 34 37 36 34
24 26 26 27 27 27 23 24 28 33 33 33 36 41 43 42 40 40 39 40 45 46 45 44 41 40 41 42 41 39 38 37 37 38 39 39 38 38 37 38 39 38 37 38 38 38 38 36 34
26 26 27 27 26 24 25 24 32 34 35 35 35 38 38 37 37 40 46 46 46 47 45 41 40 39 40 41 41 41 41 39 38 38 37 36 37 37 38 38 39 39 38 37 37 38 37 36 35
26 24 21 20 22 26 26 23 37 36 34 34 36 37 37 36 40 44 46 46 47 46 43 41 39 37 39 40 40 41 41 41 40 39 37 38 37 37 38 39 39 37 38 38 37 36 36 35 34
25 22 22 18 16 24 19 25 37 36 35 36 37 38 37 39 44 46 47 46 43 40 41 41 38 37 37 39 40 41 41 39 38 39 39 39 38 37 38 37 37 37 37 37 36 35 36 36 34
26 23 30 25 27 24 23 36 37 36 34 35 36 37 40 45 44 44 43 39 38 38 40 41 39 38 38 39 40 40 41 41 40 41 41 39 39 36 37 38 37 36 36 36 38 37 36 36 35
31 33 27 28 32 28 20 21 33 34 36 35 36 41 42 43 43 40 39 36 36 39 42 42 41 39 38 39 40 38 40 41 41 41 39 38 37 37 37 37 36 36 35 36 36 36 36 35 37
27 28 30 33 35 31 23 33 38 38 40 36 40 42 43 41 39 35 34 33 32 39 41 43 42 39 39 40 40 40 40 41 40 39 37 37 39 38 38 36 35 35 35 35 36 34 34 34 34
31 31 31 35 32 33 31 34 40 39 40 40 40 42 41 41 34 30 29 31 30 36 39 41 43 41 39 39 39 39 40 39 38 38 38 40 38 39 38 36 35 34 34 35 34 35 34 33 32
Lifted_Index
7 7 7 6 5 4 3 3 2 1 1 0 0 -1 -1 -1 -1 -1 -0 -0 -1 -1 -0 -0 0 1 1 2 2 3 3 3 3 3 3 3 4 4 4 3 2 1 0 -1 -2 -3 -3 -3 -3
7 7 7 6 5 4 3 3 2 1 1 0 0 -0 -0 -0 -0 -0 -0 -0 -0 -0 0 0 1 1 1 2 2 2 3 3 3 2 3 3 4 4 4 4 3 2 1 0 -1 -1 -2 -2 -2
8 7 7 6 6 5 4 3 2 1 1 0 0 0 0 0 0 0 0 0 0 0 1 1 1 1 1 2 2 2 3 3 3 2 3 3 5 5 5 5 4 4 3 2 1 0 -0 -1 -1
8 8 7 7 6 6 5 4 2 1 1 1 0 0 0 0 0 0 0 1 1 1 1 1 2 2 2 2 2 3 3 3 3 3 4 5 6 6 6 6 6 5 5 4 3 2 1 -0 -1
9 8 7 7 7 6 5 4 2 1 1 1 0 0 0 -0 0 0 1 1 1 1 1 2 2 2 2 2 3 3 4 4 4 5 6 6 7 7 7 7 7 6 6 6 5 4 2 1 -0
9 8 7 7 7 6 5 3 2 1 1 1 0 -0 -0 -0 0 1 1 1 1 1 2 2 2 3 3 3 4 4 4 5 5 6 7 7 7 7 7 7 7 7 7 7 7 6 4 2 1
8 8 7 7 7 6 4 2 1 1 1 0 0 -0 -0 -0 0 1 1 1 2 2 2 2 2 3 3 3 4 4 5 5 6 6 6 7 7 7 6 6 6 7 7 8 8 8 5 3 2
8 8 7 7 7 5 3 2 1 1 0 0 -0 -0 -0 -0 0 1 1 1 1 1 1 1 2 2 3 3 4 4 4 5 5 5 5 6 6 6 6 6 6 6 6 7 8 8 7 4 3
8 7 7 7 6 5 3 1 0 0 0 -0 -0 -1 -0 -0 0 1 1 1 1 1 1 1 1 1 2 2 3 3 4 4 4 4 4 4 4 5 5 6 6 5 6 6 7 7 7 6 5
7 7 7 6 6 4 2 0 -0 -1 -1 -1 -1 -1 -1 -0 -0 0 1 1 1 1 0 0 0 0 1 1 2 2 2 2 2 2 3 3 3 4 5 5 5 5 5 5 6 6 6 6 6
7 7 7 6 4 2 1 -0 -1 -1 -1 -2 -2 -1 -1 -1 -1 -0 0 0 0 0 0 -0 -1 -0 0 1 1 2 2 2 2 2 2 2 3 3 4 4 4 4 4 4 4 4 4 5 5
8 7 6 4 2 1 0 -1 -1 -2 -2 -2 -2 -2 -2 -1 -1 -0 -0 0 0 -0 -0 -1 -1 -0 0 1 1 1 1 2 2 1 1 2 2 2 3 3 3 3 3 3 3 3 3 3 3
7 7 5 3 1 0 -0 -1 -1 -2 -2 -2 -2 -2 -2 -1 -1 -1 -0 -0 -0 -1 -1 -1 -0 0 1 1 1 1 1 1 1 1 1 1 1 2 1 1 2 2 2 2 2 2 2 2 2
6 5 3 2 1 -0 -1 -1 -1 -2 -2 -2 -2 -2 -2 -2 -1 -1 -1 -1 -1 -1 -1 -1 -0 0 0 0 0 1 1 1 1 1 2 2 2 1 1 1 1 1 1 2 2 2 2 2 2
4 3 3 1 1 -0 -0 -0 -1 -2 -2 -2 -2 -2 -2 -2 -2 -2 -1 -2 -2 -1 -1 -1 -0 -0 -0 -0 0 1 1 2 2 3 3 4 4 3 2 2 2 2 2 2 1 1 1 1 1
4 3 3 2 1 0 1 1 -0 -1 -2 -2 -2 -2 -2 -2 -2 -2 -2 -2 -2 -1 -1 -1 -0 -1 -1 -0 1 2 2 3 4 5 5 6 6 6 5 4 4 4 4 3 2 2 1 1 1
4 4 3 2 1 1 1 1 -0 -1 -2 -2 -2 -2 -2 -2 -2 -2 -2 -2 -1 -1 -1 -1 -1 -1 -1 0 1 2 3 4 5 6 7 7 7 7 7 6 6 6 6 5 5 4 4 3 2
4 4 3 3 2 1 1 1 -0 -2 -2 -2 -2 -2 -3 -3 -2 -2 -2 -1 -0 -0 -0 -0 -0 -0 0 1 2 3 4 5 6 7 7 8 8 9 9 8 8 8 8 7 7 7 6 5 4
4 4 4 3 3 2 2 1 -0 -1 -2 -2 -3 -3 -3 -3 -2 -2 -1 0 1 1 1 1 1 2 2 3 4 5 6 6 7 7 8 9 10 10 10 10 10 10 10 9 9 9 8 7 6
3 3 3 3 3 2 1 1 -0 -1 -2 -3 -3 -3 -3 -2 -2 -1 0 1 2 2 2 3 3 4 5 6 6 6 6 7 7 8 9 10 11 11 11 11 11 11 11 11 11 10 10 9 8
3 2 2 2 2 1 1 0 -1 -1 -2 -3 -3 -3 -2 -2 -1 -0 0 1 2 3 3 4 5 6 7 8 8 7 7 7 8 9 10 11 11 11 11 11 12 12 12 12 12 12 12 11 10
2 2 2 2 1 0 0 -0 -1 -1 -1 -2 -2 -2 -1 -1 -1 -0 1 2 3 4 5 5 6 7 8 9 9 9 8 8 9 9 10 10 11 11 11 12 12 12 12 12 12 12 12 12 12
2 2 2 2 1 1 0 0 -1 -1 -0 0 -0 -0 -0 -0 -0 1 2 4 5 5 5 6 7 8 9 9 9 9 9 9 9 10 10 10 11 11 11 11 11 12 12 12 12 12 13 13 12
3 2 2 2 1 1 1 1 -0 0 1 1 0 0 0 0 1 2 4 5 5 6 6 7 7 8 9 9 9 9 9 9 9 9 9 10 10 10 11 11 11 12 12 12 13 13 13 13 13
3 2 2 1 1 1 1 1 1 1 1 1 0 0 1 1 2 3 4 4 5 6 7 7 7 8 8 8 8 8 8 9 9 9 9 9 9 10 10 11 12 12 12 13 13 14 14 14 14
3 3 2 1 1 2 2 2 2 2 2 1 1 2 2 3 3 3 4 4 5 6 7 7 7 7 7 8 8 8 8 8 9 9 9 9 9 10 11 11 12 13 13 14 14 14 14 14 14
3 3 3 2 2 2 2 3 3 3 3 3 3 3 3 3 3 4 4 5 6 6 6 6 6 6 7 8 8 8 8 8 8 9 9 9 10 11 11 12 13 13 14 14 14 14 14 14 14
3 4 3 3 2 2 2 3 4 4 3 3 4 4 4 3 4 4 5 5 6 6 5 5 5 6 7 7 8 8 8 8 9 9 9 10 10 11 12 13 13 14 14 14 15 14 14 14 14
4 4 4 3 3 2 2 3 4 4 4 4 4 4 4 4 4 5 5 6 6 5 5 5 5 6 7 7 7 8 8 8 9 9 10 10 11 11 12 13 13 13 14 14 14 14 14 14 14
5 5 4 4 3 3 2 3 4 4 4 4 4 4 4 4 4 5 6 6 6 5 5 5 5 6 7 7 7 8 8 9 9 10 10 10 11 11 12 13 13 13 13 14 14 14 14 14 14